Starlink 32499

operational
NORAD ID: 61959 Int'l Des: 2024-210 Owner: SPXS Country: US Constellation: starlink
LEOCIRCULAR

Starlink 32499について

説明を読み込み中...

リアルタイム位置

3D地球を読み込み中...

次回通過

高度履歴

Altitude vs Time

uPlot chart will show altitude changes over time

軌道要素

1 61959U 24210A 26034.28999633 .00042273 00000-0 15356-2 0 9993
2 61959 43.0006 13.6970 0001496 262.4172 97.6509 15.27607067 69669
Epoch: Feb 3, 2026 • Age: 19 hours

現在のステータス

高度 486.7 km
速度 7.63 km/s
衛星直下点 42.39°N, 55.25°W
打ち上げ日 Nov 14, 2024
運用期間 1.2 years
タイプ internet

技術仕様

分類 Payload
質量 730.00 kg
乾燥質量 700.00 kg
総質量 730.00 kg
長さ 0.30 m
直径 4.10 m
スパン 29.00 m
形状 Box + pan
製造者 SPXS
バスタイプ Starlink V2M
フェーズステータス In Orbit
所有者/国 SPXS/US

大規模コンステレーション

Loading constellations...